TimeEDT,TemperatureF,Dew PointF,Humidity,Sea Level PressureIn,VisibilityMPH,Wind Direction,Wind SpeedMPH,Gust SpeedMPH,PrecipitationIn,Events,Conditions,WindDirDegrees,DateUTC
12:56 AM,41.0,34.0,76,29.94,10.0,West,12.7,-,N/A,,Overcast,270,2013-04-13 04:56:00
1:56 AM,39.9,35.1,83,29.95,10.0,West,13.8,-,N/A,,Overcast,260,2013-04-13 05:56:00
2:56 AM,39.9,33.1,77,29.95,10.0,West,11.5,-,N/A,,Overcast,260,2013-04-13 06:56:00
3:56 AM,39.9,32.0,73,29.95,10.0,WSW,12.7,-,N/A,,Overcast,250,2013-04-13 07:56:00
4:56 AM,39.9,33.1,77,29.95,10.0,WSW,11.5,-,N/A,,Overcast,250,2013-04-13 08:56:00
5:56 AM,39.0,33.1,79,29.94,10.0,WSW,10.4,-,N/A,,Overcast,250,2013-04-13 09:56:00
6:56 AM,39.0,34.0,82,29.94,10.0,WSW,10.4,-,N/A,,Overcast,240,2013-04-13 10:56:00
7:56 AM,39.0,34.0,82,29.95,10.0,WSW,11.5,-,N/A,,Overcast,240,2013-04-13 11:56:00
8:56 AM,41.0,35.1,79,29.97,10.0,WSW,17.3,24.2,N/A,,Overcast,240,2013-04-13 12:56:00
9:56 AM,39.9,34.0,79,29.98,10.0,WSW,17.3,-,N/A,,Overcast,240,2013-04-13 13:56:00
10:46 AM,41.0,33.8,76,29.97,10.0,WSW,18.4,-,N/A,,Overcast,250,2013-04-13 14:46:00
10:56 AM,41.0,33.1,73,29.99,10.0,WSW,18.4,28.8,N/A,,Overcast,250,2013-04-13 14:56:00
11:56 AM,44.1,33.1,65,29.99,10.0,WSW,23.0,28.8,N/A,,Overcast,250,2013-04-13 15:56:00
12:38 PM,44.6,33.8,66,29.98,10.0,WSW,19.6,-,N/A,,Overcast,250,2013-04-13 16:38:00
12:56 PM,45.0,33.1,63,29.99,10.0,WSW,16.1,26.5,N/A,,Overcast,240,2013-04-13 16:56:00
1:56 PM,46.9,34.0,61,29.99,10.0,West,20.7,29.9,N/A,,Overcast,260,2013-04-13 17:56:00
2:56 PM,48.9,36.0,61,29.98,10.0,WSW,18.4,27.6,N/A,,Overcast,240,2013-04-13 18:56:00
3:56 PM,50.0,35.1,57,29.98,10.0,West,19.6,29.9,N/A,,Mostly Cloudy,270,2013-04-13 19:56:00
4:56 PM,50.0,37.0,61,29.99,10.0,WNW,15.0,27.6,N/A,,Mostly Cloudy,290,2013-04-13 20:56:00
5:56 PM,51.1,37.0,59,30.00,10.0,West,18.4,23.0,N/A,,Scattered Clouds,280,2013-04-13 21:56:00
6:56 PM,48.9,35.1,59,30.01,10.0,WNW,15.0,-,N/A,,Partly Cloudy,300,2013-04-13 22:56:00
7:56 PM,45.0,33.1,63,30.02,10.0,NW,11.5,-,N/A,,Clear,320,2013-04-13 23:56:00
8:56 PM,42.1,32.0,67,30.03,10.0,NW,6.9,-,N/A,,Clear,320,2013-04-14 00:56:00
9:56 PM,39.0,32.0,76,30.05,10.0,NNW,3.5,-,N/A,,Clear,330,2013-04-14 01:56:00
10:56 PM,39.9,32.0,73,30.05,10.0,Calm,Calm,-,N/A,,Mostly Cloudy,0,2013-04-14 02:56:00
11:56 PM,41.0,30.9,67,30.06,10.0,Calm,Calm,-,N/A,,Overcast,0,2013-04-14 03:56:00